Home   Weather   Richmond   Past weeks
Flag for Canada

Past Weather in Richmond, British Columbia, Canada — Yesterday and Last 2 Weeks

Now
46 °F

Partly cloudy.


Feels Like: 41 °F
Forecast: 45 / 49 °F
Wind: 10 mph from South

Location: Vancouver International Airport

Current Time: Dec 19, 2018 at 1:36:46 am

Latest Report: Dec 19, 2018 at 1:00 am


Visibility: 12 mi

Pressure: 30.01 "Hg

Humidity: 82%

Dew Point: 41 °F

Location of RichmondLocation

Past Weather in Richmond — Graph

°F

Richmond Temperature Yesterday

Maximum temperature yesterday: 50 °F (at 12:00 pm)
Minimum temperature yesterday: 45 °F (at 9:00 pm)
Average temperature yesterday: 48 °F

High & Low Weather Summary for the Past Weeks

 TemperatureHumidityPressure
High54 °F (Dec 14, 2:00 pm)100% (Dec 6, 1:00 am)30.42 "Hg (Dec 6, 1:00 am)
Low23 °F (Dec 7, 4:00 am)51% (Dec 14, 2:00 pm)29.36 "Hg (Dec 14, 3:00 pm)
Average42 °F87%29.96 "Hg
* Reported Dec 4 12:07 am — Dec 19 12:00 am, Richmond. Weather by CustomWeather, © 2018

Note: Actual official high and low records may vary slightly from our data, if they occured in-between our weather recording intervals... More about our weather records

Advertising

Richmond Weather History for the Previous 24 Hours

Scroll right to see more
 ConditionsComfort  
Time TempWeatherWind HumidityBarometerVisibility
12:00 am
Wed, Dec 19
45 °FPartly cloudy.8 mph93%29.99 "Hg12 mi
11:00 pm
Tue, Dec 18
45 °FPartly cloudy.9 mph87%29.97 "Hg20 mi
10:00 pm45 °FPartly cloudy.7 mph87%29.93 "Hg20 mi
9:00 pm45 °FPartly cloudy.9 mph93%29.89 "Hg20 mi
8:00 pm46 °FPassing clouds.14 mph87%29.84 "Hg15 mi
7:11 pm46 °FOvercast.12 mph93%29.80 "Hg12 mi
6:55 pm46 °FRain. Overcast.14 mph93%29.79 "Hg7 mi
6:43 pm48 °FRain. Overcast.17 mph87%29.78 "Hg12 mi
6:15 pm48 °FLight rain. Overcast.18 mph87%29.76 "Hg15 mi
5:00 pm48 °FOvercast.17 mph82%29.71 "Hg15 mi
4:54 pm48 °FOvercast.18 mph82%29.71 "Hg15 mi
4:00 pm48 °FCloudy.14 mph87%29.70 "Hg15 mi
3:00 pm50 °FMostly cloudy.13 mph82%29.69 "Hg15 mi
2:15 pm50 °FBroken clouds.12 mph88%29.67 "Hg15 mi
1:36 pm50 °FLight rain. Mostly cloudy.16 mph76%29.65 "Hg20 mi
1:00 pm50 °FBroken clouds.15 mph76%29.64 "Hg15 mi
12:00 pm50 °FBroken clouds.12 mph82%29.62 "Hg15 mi
11:00 am48 °FCloudy.10 mph87%29.60 "Hg15 mi
10:00 am48 °FPartly sunny.9 mph87%29.56 "Hg15 mi
9:00 am48 °FBroken clouds.13 mph87%29.53 "Hg15 mi
8:00 am46 °FOvercast.13 mph100%29.50 "Hg15 mi
7:40 am48 °FOvercast.13 mph94%29.50 "Hg15 mi
7:25 am48 °FLight rain. Overcast.17 mph94%29.50 "Hg12 mi
7:00 am48 °FLight rain. Overcast.14 mph94%29.48 "Hg12 mi
6:49 am48 °FLight rain. Overcast.9 mph94%29.48 "Hg10 mi
6:25 am48 °FLight rain. Mostly cloudy.8 mph94%29.47 "Hg10 mi
6:11 am48 °FLight rain. Overcast.10 mph94%29.47 "Hg10 mi
5:00 am48 °FLight rain. Mostly cloudy.14 mph94%29.49 "Hg8 mi
4:00 am46 °FLight rain. Mostly cloudy.13 mph100%29.51 "Hg10 mi
3:11 am46 °FLight rain. Low clouds.14 mph93%29.53 "Hg8 mi
3:00 am46 °FRain. Mostly cloudy.15 mph93%29.54 "Hg8 mi
2:34 am46 °FRain. Mostly cloudy.16 mph93%29.55 "Hg8 mi
2:00 am46 °FLight rain. Mostly cloudy.18 mph93%29.55 "Hg12 mi
1:00 am46 °FLight rain. Overcast.17 mph93%29.57 "Hg12 mi
Weather by CustomWeather, © 2018

See weather overview